Location: White Mills Observatory
(37.5374°N, 86.0303°W)
Time: 16:13:12
(UTC-05:00)

Amateur Radio Satellites - All Passes

Search period start: 09 December 2016 15:43
Search period end: 10 December 2016 15:43
Location: White Mills Observatory, 37.5374°N, 86.0303°W

Satellite Date Start Highest point End Downlink Frequencies (MHz)
Time Altitude Azimuth
Cosmos 2491 09 Dec 16:23:29 16:26:06 11° 60° (ENE) 16:28:42 435.465 / 435.565
SWISSCUBE 09 Dec 16:31:30 16:34:56 20° 294° (WNW) 16:38:22 437.505
BEESAT 09 Dec 16:35:04 16:38:34 21° 294° (WNW) 16:42:03 436.000
AUBIESAT-1 09 Dec 16:43:03 16:46:31 22° 298° (WNW) 16:49:52 437.475
BRITE-PL 09 Dec 16:43:43 16:47:46 40° 72° (ENE) 16:52:09 437.365/2234.400
AIST 2 09 Dec 16:48:34 16:52:48 79° 58° (ENE) 16:57:01 435.215
M-CUBED/EXP-1 PRIME 09 Dec 16:59:47 17:01:58 13° 302° (WNW) 17:04:08 437.505
STARS 09 Dec 17:02:15 17:06:20 36° 98° (E) 17:10:22 437.465
MOZHAYETS 4 09 Dec 17:05:44 17:09:52 35° 289° (WNW) 17:14:00
KKS-1 09 Dec 17:07:00 17:11:31 86° 281° (W) 17:15:57 437.445
ITUPSAT 1 09 Dec 17:07:37 17:08:35 11° 299° (WNW) 17:09:34 437.325
HORYU 2 09 Dec 17:16:51 17:21:19 78° 77° (ENE) 17:25:48 437.375
CUBESAT XI-V 09 Dec 17:18:40 17:23:08 42° 99° (E) 17:27:34 437.345
ISS 09 Dec 17:22:10 17:23:28 12° 341° (NNW) 17:24:45 145.825
O/OREOS (USA 219) 09 Dec 17:23:00 17:24:50 12° 305° (NW) 17:26:41 437.305
RS-15 09 Dec 17:26:12 17:38:20 67° 247° (WSW) 17:50:02 29.354- 29.394
AO-7 09 Dec 17:26:52 17:31:34 16° 269° (W) 17:36:19 29.400- 29.500
DOVE 4 09 Dec 17:28:10 17:31:54 22° 66° (ENE) 17:35:48 437.250
GOMX 1 09 Dec 17:36:47 17:41:21 62° 74° (ENE) 17:46:17 467.674
HO-68 09 Dec 17:39:38 17:41:22 11° 52° (NE) 17:43:05 435.675
LilacSat-2 09 Dec 17:39:50 17:43:16 32° 72° (ENE) 17:46:42 437.200
CUTE-I 09 Dec 17:42:16 17:47:16 41° 70° (ENE) 17:52:16 437.470
NOAA 15 09 Dec 17:51:56 17:57:01 56° 73° (ENE) 18:02:10 137.62
Cubesat XI-IV 09 Dec 18:09:08 18:14:29 74° 74° (ENE) 18:19:51 437.490
Cosmos 2491 09 Dec 18:16:00 18:24:42 68° 81° (E) 18:33:22 435.465 / 435.565
CINEMA 3 09 Dec 18:18:04 18:21:27 19° 66° (ENE) 18:24:52 145.822/145.860
BRITE-PL 09 Dec 18:23:50 18:26:32 16° 269° (W) 18:29:21 437.365/2234.400
NOAA 18 09 Dec 18:24:34 18:30:03 67° 73° (ENE) 18:35:34 137.9125
YUBILEINY 09 Dec 18:39:17 18:47:19 44° 88° (E) 18:55:24 435.215
STARS 09 Dec 18:39:19 18:42:23 19° 293° (WNW) 18:45:27 437.465
CUTE 1.7 + AOD 2 09 Dec 18:53:13 18:56:21 21° 69° (ENE) 18:59:30 437.475
CUBESAT XI-V 09 Dec 18:57:01 19:00:09 18° 294° (WNW) 19:03:17 437.345
PCSat 09 Dec 18:59:40 19:02:23 14° 44° (NE) 19:05:06 145.827
DOVE 4 09 Dec 19:04:45 19:09:16 39° 263° (W) 19:14:02 437.250
Cosmos 2504 09 Dec 19:10:54 19:18:11 34° 84° (E) 19:25:48 435.465 / 435.565
CANX-2 09 Dec 19:11:11 19:15:06 39° 73° (ENE) 19:19:01 2200.000
LilacSat-2 09 Dec 19:15:21 19:17:37 15° 267° (W) 19:19:52 437.200
STRAND 1 09 Dec 19:18:05 19:22:15 25° 95° (E) 19:26:25 437.568
GOMX 1 09 Dec 19:18:14 19:19:58 12° 272° (W) 19:21:45 467.674
HO-68 09 Dec 19:20:38 19:27:41 64° 70° (ENE) 19:34:46 435.675
CUTE-I 09 Dec 19:23:16 19:27:26 23° 266° (W) 19:31:36 437.470
SO-50 09 Dec 19:26:30 19:31:14 64° 118° (ESE) 19:35:54 436.795
SEEDS 09 Dec 19:28:13 19:31:59 34° 72° (ENE) 19:35:46 437.485
COMPASS 1 09 Dec 19:31:18 19:34:39 24° 70° (ENE) 19:37:59 437.405
NOAA 15 09 Dec 19:34:03 19:37:07 16° 268° (W) 19:40:14 137.62
RS-15 09 Dec 19:44:08 19:48:16 12° 266° (W) 19:52:22 29.354- 29.394
CUBEBUG 2 09 Dec 19:44:26 19:48:42 35° 72° (ENE) 19:52:58 437.445
Oscar 11 09 Dec 19:47:44 19:49:11 12° 65° (ENE) 19:50:39 145.826/435.025
Cubesat XI-IV 09 Dec 19:52:56 19:55:02 12° 269° (W) 19:57:09 437.490
CINEMA 3 09 Dec 19:53:22 19:58:08 48° 261° (W) 20:03:01 145.822/145.860
AIST 1 09 Dec 19:56:23 20:00:41 84° 98° (E) 20:05:04
NOAA 18 09 Dec 20:08:11 20:11:08 15° 268° (W) 20:14:06 137.9125
Cosmos 2491 09 Dec 20:14:22 20:20:40 23° 279° (W) 20:26:58 435.465 / 435.565
UWE-3 09 Dec 20:18:00 20:22:29 51° 74° (ENE) 20:26:56 435.000/436.395/437.385
CUSAT 1 09 Dec 20:28:05 20:32:14 72° 82° (E) 20:37:45 437.405
CUTE 1.7 + AOD 2 09 Dec 20:28:20 20:32:00 29° 264° (W) 20:35:40 437.475
AAUSAT CUBESAT 2 09 Dec 20:31:20 20:35:26 81° 258° (WSW) 20:39:33 437.432
YUBILEINY 09 Dec 20:36:14 20:44:07 38° 286° (WNW) 20:52:07 435.215
ISS 09 Dec 20:37:07 20:38:59 14° 22° (NNE) 20:40:52 145.825
PCSat 09 Dec 20:41:06 20:46:34 87° 63° (ENE) 20:51:59 145.827
CANX-2 09 Dec 20:48:39 20:51:05 15° 267° (W) 20:53:33 2200.000
ZACube-1 09 Dec 20:49:43 20:54:14 69° 76° (ENE) 20:58:41 437.345
FUNcube-1 09 Dec 20:55:00 20:59:30 73° 76° (ENE) 21:03:56 145.935
DELFI C3 09 Dec 20:55:01 20:58:00 21° 70° (ENE) 21:00:59 145.870
STRAND 1 09 Dec 20:56:53 21:01:26 34° 291° (WNW) 21:05:59 437.568
Cosmos 2504 09 Dec 21:03:07 21:11:11 49° 283° (WNW) 21:19:43 435.465 / 435.565
SEEDS 09 Dec 21:05:05 21:07:46 17° 267° (W) 21:10:26 437.485
COMPASS 1 09 Dec 21:06:48 21:10:06 23° 265° (W) 21:13:25 437.405
SO-50 09 Dec 21:09:02 21:12:06 17° 315° (NW) 21:15:09 436.795
HO-68 09 Dec 21:10:34 21:15:50 22° 267° (W) 21:21:08 435.675
Oscar 11 09 Dec 21:20:32 21:24:47 59° 259° (W) 21:29:04 145.826/435.025
CUBEBUG 2 09 Dec 21:21:42 21:25:20 22° 266° (W) 21:28:58 437.445
PRISM 09 Dec 21:32:41 21:36:37 39° 99° (E) 21:40:31 437.425
HUMSAT D 09 Dec 21:41:28 21:45:24 40° 73° (ENE) 21:49:18 437.325/437.525
UNISAT 6 09 Dec 21:47:19 21:48:54 12° 91° (E) 21:50:29 437.425
DANDE 09 Dec 21:55:26 21:58:28 41° 262° (W) 22:02:18 436.750
UWE-3 09 Dec 21:56:42 21:59:10 14° 268° (W) 22:01:37 435.000/436.395/437.385
ISS 09 Dec 22:12:38 22:15:56 80° 38° (NE) 22:19:14 145.825
PHONESAT 2.4 09 Dec 22:12:42 22:14:35 17° 149° (SSE) 22:16:28 2401.200-2431.200
TIGRISAT 09 Dec 22:14:22 22:17:49 23° 95° (E) 22:21:14 435.000
ANTELSAT 09 Dec 22:16:47 22:20:27 26° 96° (E) 22:24:02 437.575/2403.000
ESTCUBE 1 09 Dec 22:27:43 22:30:54 19° 67° (ENE) 22:34:05 437.505/2401.250
PCSat 09 Dec 22:28:25 22:29:07 10° 259° (WSW) 22:29:50 145.827
DELFI C3 09 Dec 22:29:28 22:32:40 24° 264° (W) 22:35:54 145.870
CUBEBUG 1 09 Dec 22:32:35 22:34:31 13° 64° (ENE) 22:36:27 437.445
VELOX 1 09 Dec 22:53:45 22:56:15 15° 65° (ENE) 22:58:46 145.980
PRISM 09 Dec 23:09:03 23:11:33 16° 294° (WNW) 23:14:03 437.425
QB50P2 09 Dec 23:15:55 23:17:47 13° 92° (E) 23:19:38 145.880/145.840
POLYITAN 1 09 Dec 23:16:36 23:18:10 12° 92° (E) 23:19:44 437.675
HUMSAT D 09 Dec 23:18:51 23:21:09 14° 267° (W) 23:23:26 437.325/437.525
GONETS M04 09 Dec 23:21:09 23:26:12 17° 78° (ENE) 23:31:12
UNISAT 6 09 Dec 23:21:42 23:25:56 51° 286° (WNW) 23:30:04 437.425
DUCHIFAT 1 09 Dec 23:25:47 23:27:41 13° 92° (E) 23:29:35 145.980
QB50P1 09 Dec 23:27:15 23:29:55 16° 93° (E) 23:32:33 145.935-145.965
JAS-2 09 Dec 23:28:23 23:33:04 31° 98° (E) 23:38:03 435.910
PHONESAT 2.4 09 Dec 23:46:52 23:49:31 82° 341° (NNW) 23:52:10 2401.200-2431.200
POPSAT HIP 1 09 Dec 23:48:24 23:52:03 28° 96° (E) 23:55:41 437.405
Cosmos 2499 09 Dec 23:50:32 23:57:55 33° 84° (E) 00:05:29 435.465 / 435.565
TIGRISAT 09 Dec 23:50:50 23:54:27 26° 290° (WNW) 23:58:01 435.000
AISAT 09 Dec 23:51:13 23:55:36 69° 76° (ENE) 00:00:03 437.250
ANTELSAT 09 Dec 23:53:35 23:57:02 23° 291° (WNW) 00:00:26 437.575/2403.000
50 SAT 09 Dec 23:53:53 23:57:18 53° 75° (ENE) 00:00:44 437.505
ESTCUBE 1 10 Dec 00:03:20 00:07:25 35° 262° (W) 00:11:33 437.505/2401.250
BUGSAT 1 10 Dec 00:05:13 00:07:12 13° 92° (E) 00:09:09 437.445
CUBEBUG 1 10 Dec 00:06:01 00:10:17 55° 260° (W) 00:14:36 437.445
UKube-1 10 Dec 00:25:27 00:29:41 61° 74° (ENE) 00:33:58 .
DX 1 10 Dec 00:26:46 00:31:07 87° 75° (ENE) 00:35:30 434.975-435.025
VELOX 1 10 Dec 00:28:02 00:32:16 47° 260° (W) 00:36:34 145.980
SPROUT 10 Dec 00:29:00 00:33:18 71° 259° (W) 00:37:37 437.525
NANOSAT C BR1 10 Dec 00:39:29 00:43:42 73° 284° (WNW) 00:47:52 145.865
QB50P2 10 Dec 00:49:45 00:53:49 46° 287° (WNW) 00:57:51 145.880/145.840
POLYITAN 1 10 Dec 00:50:09 00:54:14 49° 286° (WNW) 00:58:16 437.675
DUCHIFAT 1 10 Dec 00:59:34 01:03:36 45° 287° (WNW) 01:07:35 145.980
QB50P1 10 Dec 01:01:54 01:05:48 36° 288° (WNW) 01:09:39 145.935-145.965
AO-85 10 Dec 01:09:45 01:14:36 53° 117° (ESE) 01:19:08 145.980
GONETS M04 10 Dec 01:13:03 01:21:46 86° 276° (W) 01:30:32
JAS-2 10 Dec 01:13:40 01:18:06 28° 291° (WNW) 01:22:46 435.910
PHONESAT 2.4 10 Dec 01:22:19 01:24:51 39° 360° (N) 01:27:22 2401.200-2431.200
POPSAT HIP 1 10 Dec 01:24:26 01:27:39 21° 292° (WNW) 01:30:51 437.405
TISAT 1 10 Dec 01:35:23 01:39:37 81° 256° (WSW) 01:43:54 437.305
Oscar 19 10 Dec 01:37:36 01:42:21 35° 98° (E) 01:47:05 437.125/150
BUGSAT 1 10 Dec 01:38:49 01:42:46 43° 287° (WNW) 01:46:39 437.445
Cosmos 2499 10 Dec 01:42:16 01:50:35 52° 283° (WNW) 01:59:15 435.465 / 435.565
AUBIESAT-1 10 Dec 01:51:40 01:55:23 30° 65° (ENE) 01:59:17 437.475
O/OREOS (USA 219) 10 Dec 01:52:25 01:56:54 89° 266° (W) 02:01:22 437.305
SWISSCUBE 10 Dec 01:57:30 02:01:50 36° 71° (ENE) 02:06:12 437.505
BEESAT 10 Dec 02:01:05 02:05:24 35° 70° (ENE) 02:09:44 436.000
UKube-1 10 Dec 02:05:43 02:06:05 10° 269° (W) 02:06:26 .
M-CUBED/EXP-1 PRIME 10 Dec 02:07:13 02:11:18 56° 69° (ENE) 02:15:42 437.505
Gurwin Techsat 1B 10 Dec 02:08:29 02:13:20 35° 97° (E) 02:18:09 435.225
MOZHAYETS 4 10 Dec 02:30:00 02:32:46 16° 66° (ENE) 02:35:33
ITUPSAT 1 10 Dec 02:31:13 02:35:58 73° 75° (ENE) 02:40:45 437.325
AO-85 10 Dec 02:51:51 02:55:16 19° 311° (NW) 02:58:32 145.980
PHONESAT 2.4 10 Dec 02:57:32 03:00:11 77° 17° (NNE) 03:02:48 2401.200-2431.200
GONETS M04 10 Dec 03:15:03 03:19:54 16° 297° (WNW) 03:24:47
Oscar 19 10 Dec 03:17:14 03:21:29 26° 293° (WNW) 03:25:43 437.125/150
AUBIESAT-1 10 Dec 03:26:26 03:29:46 23° 261° (W) 03:33:15 437.475
AO-7 10 Dec 03:33:55 03:41:22 34° 98° (E) 03:48:45 29.400- 29.500
SWISSCUBE 10 Dec 03:36:08 03:39:42 21° 265° (W) 03:43:16 437.505
BEESAT 10 Dec 03:39:37 03:43:14 21° 265° (W) 03:46:52 436.000
M-CUBED/EXP-1 PRIME 10 Dec 03:44:35 03:46:10 12° 266° (W) 03:47:48 437.505
Gurwin Techsat 1B 10 Dec 03:48:42 03:53:05 27° 293° (WNW) 03:57:28 435.225
ITAMSAT 1 10 Dec 03:54:30 03:59:42 80° 103° (ESE) 04:04:51 435.822/435.867
STARS 10 Dec 03:57:05 04:00:45 26° 69° (ENE) 04:04:26 437.465
SO-50 10 Dec 04:00:04 04:04:09 32° 52° (NE) 04:08:09 436.795
KKS-1 10 Dec 04:02:42 04:07:08 68° 74° (ENE) 04:11:36 437.445
MOZHAYETS 4 10 Dec 04:05:08 04:09:32 46° 261° (W) 04:13:57
CUBESAT XI-V 10 Dec 04:20:08 04:24:13 33° 71° (ENE) 04:28:19 437.345
PHONESAT 2.4 10 Dec 04:33:12 04:35:07 18° 211° (SSW) 04:37:02 2401.200-2431.200
BEESAT 3 10 Dec 04:35:29 04:39:20 73° 299° (WNW) 04:43:17 437.485
BRITE-PL 10 Dec 04:50:08 04:54:10 20° 92° (E) 04:58:15 437.365/2234.400
YUBILEINY 10 Dec 04:52:42 04:58:36 19° 65° (ENE) 05:04:28 435.215
HORYU 2 10 Dec 05:10:53 05:13:43 17° 94° (E) 05:16:32 437.375
BEESAT 2 10 Dec 05:14:22 05:18:15 61° 303° (WNW) 05:22:11 435.950
Cosmos 2491 10 Dec 05:23:31 05:27:31 14° 77° (ENE) 05:31:30 435.465 / 435.565
AO-7 10 Dec 05:26:17 05:34:15 51° 295° (WNW) 05:42:13 29.400- 29.500
STARS 10 Dec 05:33:19 05:36:59 26° 264° (W) 05:40:42 437.465
ITAMSAT 1 10 Dec 05:36:32 05:38:27 12° 299° (WNW) 05:40:21 435.822/435.867
RS-15 10 Dec 05:37:13 05:45:49 25° 100° (E) 05:54:38 29.354- 29.394
GOMX 1 10 Dec 05:40:45 05:45:16 26° 94° (E) 05:49:42 467.674
SO-50 10 Dec 05:40:49 05:44:26 24° 248° (WSW) 05:48:01 436.795
CUBESAT XI-V 10 Dec 05:58:08 06:01:38 21° 266° (W) 06:05:08 437.345
CUTE-I 10 Dec 06:02:07 06:05:49 19° 93° (E) 06:09:29 437.470
AIST 1 10 Dec 06:06:24 06:09:21 17° 73° (ENE) 06:12:16
NOAA 15 10 Dec 06:09:32 06:13:50 25° 96° (E) 06:18:05 137.62
BRITE-PL 10 Dec 06:27:26 06:32:49 52° 287° (WNW) 06:38:19 437.365/2234.400
Cubesat XI-IV 10 Dec 06:28:43 06:33:32 34° 97° (E) 06:38:19 437.490
STRAND 1 10 Dec 06:32:00 06:36:26 30° 69° (ENE) 06:40:53 437.568
AIST 2 10 Dec 06:44:39 06:48:01 25° 112° (ESE) 06:51:26 435.215
HORYU 2 10 Dec 06:46:17 06:50:24 39° 288° (WNW) 06:54:29 437.375
YUBILEINY 10 Dec 06:47:35 06:56:28 84° 265° (W) 07:05:18 435.215
LilacSat-2 10 Dec 06:48:40 06:52:25 64° 101° (E) 06:56:08 437.200
NOAA 18 10 Dec 06:49:01 06:53:58 33° 98° (E) 06:58:50 137.9125
HO-68 10 Dec 06:54:11 06:56:25 11° 89° (E) 06:58:38 435.675
Cosmos 2504 10 Dec 06:58:12 07:06:47 60° 79° (E) 07:14:47 435.465 / 435.565
DOVE 4 10 Dec 07:05:13 07:10:28 71° 101° (E) 07:15:29 437.250
Cosmos 2491 10 Dec 07:14:07 07:22:54 83° 94° (E) 07:31:41 435.465 / 435.565
GOMX 1 10 Dec 07:18:18 07:23:22 39° 289° (WNW) 07:28:21 467.674
CUTE-I 10 Dec 07:40:59 07:46:05 48° 289° (WNW) 07:51:10 437.470
AIST 1 10 Dec 07:43:01 07:47:02 35° 269° (W) 07:51:01
RS-15 10 Dec 07:44:59 07:56:43 83° 300° (WNW) 08:09:06 29.354- 29.394
NOAA 15 10 Dec 07:48:49 07:53:38 37° 291° (WNW) 07:58:28 137.62
CINEMA 3 10 Dec 07:50:21 07:54:55 48° 98° (E) 07:59:14 145.822/145.860
Cubesat XI-IV 10 Dec 08:08:59 08:13:27 28° 293° (WNW) 08:17:53 437.490
STRAND 1 10 Dec 08:11:07 08:15:32 29° 264° (W) 08:19:57 437.568
UWE-3 10 Dec 08:12:36 08:13:22 10° 90° (E) 08:14:08 435.000/436.395/437.385
CUTE 1.7 + AOD 2 10 Dec 08:14:21 08:18:30 52° 100° (E) 08:22:38 437.475
AAUSAT CUBESAT 2 10 Dec 08:16:19 08:19:07 18° 94° (E) 08:21:56 437.432
PRISM 10 Dec 08:20:36 08:23:45 22° 68° (ENE) 08:26:54 437.425
AIST 2 10 Dec 08:22:53 08:26:23 27° 308° (NW) 08:29:57 435.215
NOAA 18 10 Dec 08:29:43 08:34:30 31° 293° (WNW) 08:39:14 137.9125
CANX-2 10 Dec 08:33:19 08:37:33 77° 283° (WNW) 08:41:46 2200.000
HO-68 10 Dec 08:37:49 08:45:04 80° 105° (ESE) 08:52:16 435.675
ZACube-1 10 Dec 08:41:41 08:43:54 14° 92° (E) 08:46:07 437.345
DOVE 4 10 Dec 08:44:53 08:47:25 14° 298° (WNW) 08:49:55 437.250
UNISAT 6 10 Dec 08:45:47 08:46:17 10° 63° (ENE) 08:46:49 437.425
FUNcube-1 10 Dec 08:46:31 08:48:51 15° 92° (E) 08:51:11 145.935
YUBILEINY 10 Dec 08:47:39 08:51:48 14° 283° (WNW) 08:55:58 435.215
SEEDS 10 Dec 08:48:52 08:53:04 89° 308° (NW) 08:57:17 437.485
COMPASS 1 10 Dec 08:50:18 08:54:26 60° 100° (E) 08:58:33 437.405
Cosmos 2504 10 Dec 08:52:41 08:59:26 27° 278° (W) 09:05:53 435.465 / 435.565
Oscar 11 10 Dec 09:09:56 09:13:38 28° 96° (E) 09:17:19 145.826/435.025
TIGRISAT 10 Dec 09:11:17 09:14:31 19° 67° (ENE) 09:17:43 435.000
CUBEBUG 2 10 Dec 09:13:28 09:17:48 82° 286° (WNW) 09:21:59 437.445
ANTELSAT 10 Dec 09:13:44 09:17:12 21° 68° (ENE) 09:20:39 437.575/2403.000
Cosmos 2491 10 Dec 09:14:59 09:20:46 19° 294° (WNW) 09:26:36 435.465 / 435.565
DANDE 10 Dec 09:21:58 09:24:09 14° 95° (E) 09:26:05 436.750
CINEMA 3 10 Dec 09:28:49 09:31:33 16° 296° (WNW) 09:34:13 145.822/145.860
CUSAT 1 10 Dec 09:30:48 09:33:48 87° 278° (W) 09:36:27 437.405
PCSat 10 Dec 09:40:20 09:43:10 14° 103° (ESE) 09:45:59 145.827
JAS-2 10 Dec 09:42:25 09:44:24 12° 62° (ENE) 09:46:20 435.910
AO-85 10 Dec 09:43:53 09:47:02 22° 50° (NE) 09:50:08 145.980
UWE-3 10 Dec 09:46:02 09:50:11 54° 286° (WNW) 09:54:13 435.000/436.395/437.385
AAUSAT CUBESAT 2 10 Dec 09:50:55 09:54:39 32° 288° (WNW) 09:58:21 437.432
CUTE 1.7 + AOD 2 10 Dec 09:52:08 09:53:51 12° 295° (WNW) 09:55:35 437.475
PRISM 10 Dec 09:55:28 09:58:53 26° 263° (W) 10:02:19 437.425
RS-15 10 Dec 10:01:27 10:11:22 29° 327° (NNW) 10:21:36 29.354- 29.394
DELFI C3 10 Dec 10:07:42 10:11:33 44° 99° (E) 10:15:22 145.870
ZACube-1 10 Dec 10:16:28 10:20:23 40° 287° (WNW) 10:24:14 437.345
UNISAT 6 10 Dec 10:17:40 10:22:20 79° 257° (WSW) 10:26:59 437.425
QB50P1 10 Dec 10:19:57 10:20:38 10° 64° (ENE) 10:21:19 145.935-145.965
FUNcube-1 10 Dec 10:21:23 10:25:16 38° 288° (WNW) 10:29:04 145.935
HO-68 10 Dec 10:27:13 10:31:56 19° 302° (WNW) 10:36:39 435.675
COMPASS 1 10 Dec 10:28:36 10:29:26 10° 295° (WNW) 10:30:15 437.405
POPSAT HIP 1 10 Dec 10:39:35 10:42:27 18° 67° (ENE) 10:45:18 437.405
Oscar 11 10 Dec 10:46:15 10:49:36 22° 291° (WNW) 10:52:57 145.826/435.025
TIGRISAT 10 Dec 10:46:28 10:50:52 40° 262° (W) 10:55:14 435.000
ANTELSAT 10 Dec 10:49:22 10:53:39 36° 262° (W) 10:57:55 437.575/2403.000
HUMSAT D 10 Dec 11:01:45 11:05:50 79° 284° (WNW) 11:09:54 437.325/437.525
DANDE 10 Dec 11:03:12 11:06:44 26° 280° (W) 11:09:36 436.750
JUGNU 10 Dec 11:19:22 11:22:14 14° 178° (S) 11:25:06 437.505
PCSat 10 Dec 11:20:32 11:25:54 67° 299° (WNW) 11:31:19 145.827
JAS-2 10 Dec 11:22:28 11:28:52 89° 70° (ENE) 11:34:33 435.910
AO-85 10 Dec 11:24:06 11:27:23 26° 247° (WSW) 11:30:39 145.980
GONETS M04 10 Dec 11:25:57 11:34:11 44° 76° (ENE) 11:42:23
NANOSAT C BR1 10 Dec 11:29:07 11:33:19 61° 75° (ENE) 11:37:33 145.865
Cosmos 2499 10 Dec 11:36:25 11:44:41 55° 78° (ENE) 11:52:18 435.465 / 435.565
QB50P2 10 Dec 11:39:42 11:43:59 85° 258° (WSW) 11:48:17 145.880/145.840
POLYITAN 1 10 Dec 11:40:04 11:44:22 89° 261° (W) 11:48:41 437.675
DELFI C3 10 Dec 11:44:10 11:45:57 13° 294° (WNW) 11:47:45 145.870
AISAT 10 Dec 11:44:36 11:47:14 15° 93° (E) 11:49:50 437.250
DUCHIFAT 1 10 Dec 11:48:42 11:52:58 84° 257° (WSW) 11:57:15 145.980
QB50P1 10 Dec 11:51:33 11:55:49 66° 259° (W) 12:00:04 145.935-145.965
CUBEBUG 1 10 Dec 11:56:38 12:00:34 30° 97° (E) 12:04:28 437.445
ESTCUBE 1 10 Dec 11:57:09 12:01:35 53° 100° (E) 12:06:01 437.505/2401.250
POPSAT HIP 1 10 Dec 12:13:58 12:17:55 36° 262° (W) 12:21:54 437.405
UKube-1 10 Dec 12:16:40 12:18:08 11° 92° (E) 12:19:35 .
SPROUT 10 Dec 12:17:24 12:20:44 22° 95° (E) 12:24:03 437.525
DX 1 10 Dec 12:17:57 12:20:51 17° 94° (E) 12:23:44 434.975-435.025
VELOX 1 10 Dec 12:19:55 12:24:03 36° 98° (E) 12:28:09 145.980
RS-15 10 Dec 12:22:37 12:30:03 17° 3° (N) 12:37:30 29.354- 29.394
BUGSAT 1 10 Dec 12:25:42 12:29:56 86° 260° (W) 12:34:13 437.445
Oscar 19 10 Dec 12:52:30 12:57:16 42° 71° (ENE) 13:02:06 437.125/150
BEESAT 3 10 Dec 12:54:19 12:57:57 32° 54° (NE) 13:01:33 437.485
50 SAT 10 Dec 12:54:43 12:58:17 86° 101° (E) 13:01:52 437.505
SRMSAT 10 Dec 13:07:49 13:10:21 13° 175° (S) 13:12:52 437.500
JUGNU 10 Dec 13:08:28 13:10:24 12° 189° (S) 13:12:19 437.505
PCSat 10 Dec 13:09:01 13:10:20 11° 319° (NW) 13:11:40 145.827
JAS-2 10 Dec 13:13:06 13:14:22 11° 269° (W) 13:15:36 435.910
AISAT 10 Dec 13:19:38 13:23:52 43° 288° (WNW) 13:28:05 437.250
TISAT 1 10 Dec 13:22:12 13:25:02 17° 94° (E) 13:27:51 437.305
GONETS M04 10 Dec 13:23:02 13:30:47 38° 274° (W) 13:38:33
Gurwin Techsat 1B 10 Dec 13:27:31 13:32:34 46° 71° (ENE) 13:37:39 435.225
Cosmos 2499 10 Dec 13:30:30 13:37:10 27° 277° (W) 13:43:29 435.465 / 435.565
CUBEBUG 1 10 Dec 13:33:14 13:36:39 22° 292° (WNW) 13:40:03 437.445
BEESAT 2 10 Dec 13:33:55 13:37:44 39° 55° (NE) 13:41:31 435.950
ITAMSAT 1 10 Dec 13:35:02 13:36:54 12° 61° (ENE) 13:38:46 435.822/435.867
ESTCUBE 1 10 Dec 13:35:35 13:37:55 14° 295° (WNW) 13:40:14 437.505/2401.250
UKube-1 10 Dec 13:50:13 13:54:27 54° 287° (WNW) 13:58:40 .
SPROUT 10 Dec 13:52:58 13:56:38 28° 290° (WNW) 14:00:15 437.525
DX 1 10 Dec 13:53:05 13:57:09 37° 288° (WNW) 14:01:10 434.975-435.025
VELOX 1 10 Dec 13:57:03 14:00:13 19° 293° (WNW) 14:03:22 145.980
SWISSCUBE 10 Dec 14:02:43 14:03:11 10° 90° (E) 14:03:40 437.505
O/OREOS (USA 219) 10 Dec 14:25:58 14:28:08 13° 98° (E) 14:30:17 437.305
AO-7 10 Dec 14:30:48 14:38:20 41° 62° (ENE) 14:45:56 29.400- 29.500
BEESAT 3 10 Dec 14:32:30 14:35:20 19° 249° (WSW) 14:38:08 437.485
Oscar 19 10 Dec 14:32:57 14:36:44 21° 266° (W) 14:40:33 437.125/150
ITUPSAT 1 10 Dec 14:34:25 14:38:02 21° 95° (E) 14:41:38 437.325
RS-15 10 Dec 14:37:32 14:48:19 33° 37° (NE) 14:58:50 29.354- 29.394
ISS 10 Dec 14:51:07 14:54:22 74° 138° (SE) 14:57:39 145.825
SRMSAT 10 Dec 14:56:07 14:58:39 13° 185° (S) 15:01:10 437.500
TISAT 1 10 Dec 14:56:56 15:00:44 33° 289° (WNW) 15:04:30 437.305
AUBIESAT-1 10 Dec 15:06:09 15:10:07 30° 101° (E) 15:13:52 437.475
AIST 2 10 Dec 15:08:32 15:10:20 12° 44° (NE) 15:12:06 435.215
Gurwin Techsat 1B 10 Dec 15:08:55 15:12:43 20° 267° (W) 15:16:31 435.225
ITAMSAT 1 10 Dec 15:10:24 15:15:38 82° 258° (WSW) 15:20:51 435.822/435.867
BEESAT 2 10 Dec 15:12:43 15:15:11 16° 250° (WSW) 15:17:38 435.950
M-CUBED/EXP-1 PRIME 10 Dec 15:22:21 15:26:54 59° 105° (ESE) 15:31:11 437.505
